Regional Weather Roundup
Issued by NWS

Home | Current Version | Previous Version | Text Only | Print | Product List | Glossary Off
Versions: 1 2 3 4 5 6 7 8 9 10 11 12 13 14 15 16 17 18 19 20 21 22 23 24 25 26 27

000
ASUS45 KCYS 010010
RWRWY

WYOMING REGIONAL WEATHER ROUNDUP
NATIONAL WEATHER SERVICE CHEYENNE WY
600 PM MDT TUE MAY 31 2016

NOTE:  "FAIR" INDICATES FEW OR NO CLOUDS BELOW 12,000 FEET
WITH NO SIGNIFICANT WEATHER AND/OR OBSTRUCTIONS TO VISIBILITY.

WYZ001-010100-
YELLOWSTONE NATIONAL PARK

CITY           SKY/WX    TMP DP  RH WIND       PRES   REMARKS
LK YELLOWSTONE   N/A     51  23  33 VRB3      30.23S
6HR MIN TEMP:  43; 6HR MAX TEMP:  54;

W YELLOWSTONE  NOT AVBL

$$
WYZ002>013-054>058-071-098>099-010100-
NORTHERN WYOMING

CITY           SKY/WX    TMP DP  RH WIND       PRES   REMARKS
JACKSON        SUNNY     63  19  19 SW12      30.13S
CODY           FAIR      61  36  39 NE14      30.12F
GREYBULL       FAIR      66  28  24 NW17G23   30.07R
6HR MIN TEMP:  62; 6HR MAX TEMP:  68;

WORLAND        PTSUNNY   65  30  27 NW10      30.08S
6HR MIN TEMP:  62; 6HR MAX TEMP:  69;

SHERIDAN       FAIR      61  40  45 NW18      30.12F
6HR MIN TEMP:  53; 6HR MAX TEMP:  62;

BUFFALO        PTSUNNY   55  39  54 N25G38    30.13S
6HR MIN TEMP:  52; 6HR MAX TEMP:  58;

GILLETTE       FAIR      55  40  56 N22G31    30.10S
6HR MIN TEMP:  54; 6HR MAX TEMP:  58;

HULETT         CLOUDY    52  41  66 NW10G21   30.12R
NEWCASTLE      FAIR      57  36  44 NW25G31   30.10R

$$
WYZ014>020-022>026-101>103-010100-
CENTRAL WYOMING

CITY           SKY/WX    TMP DP  RH WIND       PRES   REMARKS
BIG PINEY      FAIR      66  25  21 W10       30.13S
6HR MIN TEMP:  57; 6HR MAX TEMP:  66;

PINEDALE       FAIR      63  25  23 NW10      30.14S
DUBOIS         FAIR      59  30  33 SE14G28   30.13S
LANDER         FAIR      63  34  33 E9        30.08S
6HR MIN TEMP:  58; 6HR MAX TEMP:  66;

RIVERTON       FAIR      65  31  28 N9        30.11S
6HR MIN TEMP:  58; 6HR MAX TEMP:  65;

CASPER         FAIR      61  35  37 N18G24    30.11S
6HR MIN TEMP:  56; 6HR MAX TEMP:  65;

DOUGLAS          N/A    N/A N/A N/A MISG      30.11R

$$
WYZ021-027>030-104>119-010100-
SOUTHERN WYOMING

CITY           SKY/WX    TMP DP  RH WIND       PRES   REMARKS
EVANSTON       FAIR      65  35  33 NW7       30.14S
6HR MIN TEMP:  60; 6HR MAX TEMP:  67;

KEMMERER         N/A     63  30  29 W16G22    30.15S
FORT BRIDGER   MOCLDY    68  34  28 NW6       30.16S
ROCK SPRINGS   FAIR      65  29  25 W9        30.10F
6HR MIN TEMP:  58; 6HR MAX TEMP:  67;

DIXON          FAIR      68  32  27 W3        30.12S
RAWLINS        FAIR      60  29  30 NE7       30.13S
6HR MIN TEMP:  56; 6HR MAX TEMP:  65;

SARATOGA       FAIR      63  32  31 N12G18    30.14S
LARAMIE        PTSUNNY   58  29  33 N13       30.15R
6HR MIN TEMP:  54; 6HR MAX TEMP:  61;

CHEYENNE       CLOUDY    59  43  55 NE7       30.12R
6HR MIN TEMP:  56; 6HR MAX TEMP:  61; 6HR PCP:  0.02;

TORRINGTON     FAIR      68  31  25 N23G29    30.03R
6HR MIN TEMP:  63; 6HR MAX TEMP:  71;

PINE BLUFFS    FAIR      63  45  51 CALM      30.10R

$$




USA.gov is the U.S. government's official web portal to all federal, state and local government web resources and services.